Time,TemperatureF,DewpointF,PressureIn,WindDirection,WindDirectionDegrees,WindSpeedMPH,WindSpeedGustMPH,Humidity,HourlyPrecipIn,Conditions,Clouds,dailyrainin,SoftwareType,DateUTC
2013-01-09 00:00:00,26.2,24.2,30.43,NNW,328,0.0,0.0,92,0.00,,SKC,0.00,VWS V14.00,2013-01-09 05:00:00,
2013-01-09 00:02:00,26.2,24.2,30.43,NNW,328,0.0,0.0,92,0.00,,SKC,0.00,VWS V14.00,2013-01-09 05:02:00,
2013-01-09 00:03:00,26.2,24.2,30.43,NNW,328,0.0,0.0,92,0.00,,SKC,0.00,VWS V14.00,2013-01-09 05:03:00,
2013-01-09 00:08:00,26.0,23.7,30.42,NNW,328,0.0,0.0,91,0.00,,SKC,0.00,VWS V14.00,2013-01-09 05:08:00,
2013-01-09 00:14:00,25.9,23.6,30.42,NNW,328,0.0,0.0,91,0.00,,SKC,0.00,VWS V14.00,2013-01-09 05:14:00,
2013-01-09 00:19:00,25.7,23.4,30.42,NNW,328,0.0,0.0,91,0.00,,SKC,0.00,VWS V14.00,2013-01-09 05:19:00,
2013-01-09 00:24:00,25.5,23.2,30.42,NNW,328,0.0,0.0,91,0.00,,SKC,0.00,VWS V14.00,2013-01-09 05:24:00,
2013-01-09 00:29:00,25.5,23.5,30.42,NNW,328,0.0,0.0,92,0.00,,SKC,0.00,VWS V14.00,2013-01-09 05:29:00,
2013-01-09 00:30:00,25.5,23.2,30.42,NNW,338,0.0,0.0,91,0.00,,SKC,0.00,VWS V14.00,2013-01-09 05:30:00,
2013-01-09 00:34:00,25.6,23.6,30.43,NNW,328,0.0,0.0,92,0.00,,SKC,0.00,VWS V14.00,2013-01-09 05:34:00,
2013-01-09 00:39:00,25.5,23.5,30.43,NNW,328,0.0,0.0,92,0.00,,SKC,0.00,VWS V14.00,2013-01-09 05:39:00,
2013-01-09 00:44:00,25.3,23.0,30.42,NNW,328,0.0,0.0,91,0.00,,SKC,0.00,VWS V14.00,2013-01-09 05:44:00,
2013-01-09 00:49:00,25.1,22.9,30.42,NNW,328,0.0,0.0,91,0.00,,SKC,0.00,VWS V14.00,2013-01-09 05:49:00,
2013-01-09 00:54:00,25.0,22.8,30.42,NNW,328,0.0,0.0,91,0.00,,SKC,0.00,VWS V14.00,2013-01-09 05:54:00,
2013-01-09 00:59:00,24.9,22.9,30.42,NNW,328,0.0,0.0,92,0.00,,SKC,0.00,VWS V14.00,2013-01-09 05:59:00,
2013-01-09 01:00:00,25.0,22.8,30.42,NNW,338,0.0,0.0,91,0.00,,SKC,0.00,VWS V14.00,2013-01-09 06:00:00,
2013-01-09 01:04:00,24.9,22.9,30.42,NNW,328,0.0,0.0,92,0.00,,SKC,0.00,VWS V14.00,2013-01-09 06:04:00,
2013-01-09 01:09:00,24.9,22.9,30.42,NNW,328,0.0,0.0,92,0.00,,SKC,0.00,VWS V14.00,2013-01-09 06:09:00,
2013-01-09 01:14:00,24.9,22.9,30.42,NNW,328,0.0,0.0,92,0.00,,SKC,0.00,VWS V14.00,2013-01-09 06:14:00,
2013-01-09 01:20:00,25.0,23.0,30.42,NNW,328,0.0,0.0,92,0.00,,SKC,0.00,VWS V14.00,2013-01-09 06:20:00,
2013-01-09 01:25:00,25.0,23.0,30.42,NNW,328,0.0,0.0,92,0.00,,SKC,0.00,VWS V14.00,2013-01-09 06:25:00,
2013-01-09 01:30:00,24.9,22.9,30.42,NNW,328,0.0,0.0,92,0.00,,SKC,0.00,VWS V14.00,2013-01-09 06:30:00,
2013-01-09 01:35:00,24.9,22.9,30.42,NNW,328,0.0,0.0,92,0.00,,SKC,0.00,VWS V14.00,2013-01-09 06:35:00,
2013-01-09 01:40:00,24.9,22.9,30.42,NNW,328,0.0,0.0,92,0.00,,SKC,0.00,VWS V14.00,2013-01-09 06:40:00,
2013-01-09 01:45:00,24.8,22.8,30.42,NNW,328,0.0,0.0,92,0.00,,SKC,0.00,VWS V14.00,2013-01-09 06:45:00,
2013-01-09 01:50:00,24.8,22.8,30.42,NNW,328,0.0,0.0,92,0.00,,SKC,0.00,VWS V14.00,2013-01-09 06:50:00,
2013-01-09 01:55:00,24.6,22.6,30.42,NNW,328,0.0,0.0,92,0.00,,SKC,0.00,VWS V14.00,2013-01-09 06:55:00,
2013-01-09 02:00:00,24.4,22.2,30.42,NNW,328,0.0,0.0,91,0.00,,SKC,0.00,VWS V14.00,2013-01-09 07:00:00,
2013-01-09 02:05:00,24.2,22.0,30.42,NNW,328,0.0,0.0,91,0.00,,SKC,0.00,VWS V14.00,2013-01-09 07:05:00,
2013-01-09 02:10:00,23.9,21.7,30.42,NNW,328,0.0,0.0,91,0.00,,SKC,0.00,VWS V14.00,2013-01-09 07:10:00,
2013-01-09 02:15:00,23.8,21.6,30.42,NNW,328,0.0,0.0,91,0.00,,SKC,0.00,VWS V14.00,2013-01-09 07:15:00,
2013-01-09 02:20:00,23.7,21.5,30.42,NNW,328,0.0,0.0,91,0.00,,SKC,0.00,VWS V14.00,2013-01-09 07:20:00,
2013-01-09 02:25:00,23.7,21.7,30.42,NNW,328,0.0,0.0,92,0.00,,SKC,0.00,VWS V14.00,2013-01-09 07:25:00,
2013-01-09 02:30:00,23.6,21.6,30.42,NNW,328,0.0,0.0,92,0.00,,SKC,0.00,VWS V14.00,2013-01-09 07:30:00,
2013-01-09 02:35:00,23.5,21.3,30.42,NNW,328,0.0,0.0,91,0.00,,SKC,0.00,VWS V14.00,2013-01-09 07:35:00,
2013-01-09 02:40:00,23.3,21.1,30.41,NNW,328,0.0,0.0,91,0.00,,SKC,0.00,VWS V14.00,2013-01-09 07:40:00,
2013-01-09 02:45:00,23.3,21.3,30.41,NNW,328,0.0,0.0,92,0.00,,SKC,0.00,VWS V14.00,2013-01-09 07:45:00,
2013-01-09 02:50:00,23.3,21.3,30.41,NNW,328,0.0,0.0,92,0.00,,SKC,0.00,VWS V14.00,2013-01-09 07:50:00,
2013-01-09 02:56:00,23.3,21.3,30.41,NNW,328,0.0,0.0,92,0.00,,SKC,0.00,VWS V14.00,2013-01-09 07:56:00,
2013-01-09 03:00:00,23.3,21.3,30.41,NNW,338,0.0,0.0,92,0.00,,SKC,0.00,VWS V14.00,2013-01-09 08:00:00,
2013-01-09 03:01:00,23.4,21.4,30.41,NNW,328,0.0,0.0,92,0.00,,SKC,0.00,VWS V14.00,2013-01-09 08:01:00,
2013-01-09 03:06:00,23.3,21.3,30.41,NNW,328,0.0,0.0,92,0.00,,SKC,0.00,VWS V14.00,2013-01-09 08:06:00,
2013-01-09 03:11:00,23.5,21.5,30.41,NNW,328,0.0,0.0,92,0.00,,SKC,0.00,VWS V14.00,2013-01-09 08:11:00,
2013-01-09 03:16:00,23.7,21.7,30.41,NNW,328,0.0,0.0,92,0.00,,SKC,0.00,VWS V14.00,2013-01-09 08:16:00,
2013-01-09 03:21:00,23.8,21.8,30.41,NNW,328,0.0,0.0,92,0.00,,SKC,0.00,VWS V14.00,2013-01-09 08:21:00,
2013-01-09 03:27:00,23.8,21.8,30.41,NNW,328,0.0,0.0,92,0.00,,SKC,0.00,VWS V14.00,2013-01-09 08:27:00,
2013-01-09 03:30:00,23.8,21.8,30.41,NNW,338,0.0,0.0,92,0.00,,SKC,0.00,VWS V14.00,2013-01-09 08:30:00,
2013-01-09 03:32:00,23.6,21.6,30.41,NNW,328,0.0,0.0,92,0.00,,SKC,0.00,VWS V14.00,2013-01-09 08:32:00,
2013-01-09 03:37:00,23.3,21.3,30.40,NNW,328,0.0,0.0,92,0.00,,SKC,0.00,VWS V14.00,2013-01-09 08:37:00,
2013-01-09 03:42:00,23.1,21.1,30.40,NNW,328,0.0,0.0,92,0.00,,SKC,0.00,VWS V14.00,2013-01-09 08:42:00,
2013-01-09 04:00:00,22.7,20.5,30.40,NNW,338,0.0,0.0,91,0.00,,SKC,0.00,VWS V14.00,2013-01-09 09:00:00,
2013-01-09 04:30:00,23.5,21.5,30.40,NNW,338,0.0,0.0,92,0.00,,SKC,0.00,VWS V14.00,2013-01-09 09:30:00,
2013-01-09 05:00:00,22.9,20.9,30.40,NNW,338,0.0,1.0,92,0.00,,SKC,0.00,VWS V14.00,2013-01-09 10:00:00,
2013-01-09 05:30:00,23.1,21.1,30.39,NNW,338,0.0,0.0,92,0.00,,SKC,0.00,VWS V14.00,2013-01-09 10:30:00,
2013-01-09 06:00:00,23.5,21.5,30.39,NNW,338,0.0,2.0,92,0.00,,SKC,0.00,VWS V14.00,2013-01-09 11:00:00,
2013-01-09 06:30:00,23.1,21.1,30.40,NNW,338,0.0,0.0,92,0.00,,SKC,0.00,VWS V14.00,2013-01-09 11:30:00,
2013-01-09 07:00:00,23.0,21.0,30.40,NNW,338,0.0,0.0,92,0.00,,SKC,0.00,VWS V14.00,2013-01-09 12:00:00,
2013-01-09 07:30:00,23.6,21.6,30.40,NNW,338,0.0,0.0,92,0.00,,SKC,0.00,VWS V14.00,2013-01-09 12:30:00,
2013-01-09 08:00:00,24.1,22.1,30.40,NNW,338,0.0,0.0,92,0.00,,SKC,0.00,VWS V14.00,2013-01-09 13:00:00,
2013-01-09 08:30:00,25.3,23.6,30.41,NNW,338,0.0,0.0,93,0.00,,SKC,0.00,VWS V14.00,2013-01-09 13:30:00,
2013-01-09 09:00:00,26.9,25.1,30.40,NNW,338,0.0,0.0,93,0.00,,SKC,0.00,VWS V14.00,2013-01-09 14:00:00,
2013-01-09 09:30:00,29.9,28.4,30.38,NNW,338,0.0,4.0,94,0.00,,SKC,0.00,VWS V14.00,2013-01-09 14:30:00,
2013-01-09 10:00:00,32.7,30.9,30.40,NNW,338,0.0,2.0,93,0.00,,SKC,0.00,VWS V14.00,2013-01-09 15:00:00,
2013-01-09 10:30:00,35.7,33.6,30.39,NNW,338,0.0,2.0,92,0.01,,SKC,0.01,VWS V14.00,2013-01-09 15:30:00,
2013-01-09 11:00:00,40.7,37.4,30.38,NNW,338,0.0,4.0,88,0.01,,SKC,0.01,VWS V14.00,2013-01-09 16:00:00,
2013-01-09 11:30:00,43.3,37.2,30.35,SSW,202,1.0,7.0,79,0.01,,SKC,0.01,VWS V14.00,2013-01-09 16:30:00,
2013-01-09 12:00:00,43.3,36.6,30.34,South,180,0.0,3.0,77,0.00,,SKC,0.01,VWS V14.00,2013-01-09 17:00:00,
2013-01-09 12:30:00,41.8,36.4,30.35,SW,225,2.0,6.0,81,0.00,,SKC,0.01,VWS V14.00,2013-01-09 17:30:00,
2013-01-09 13:00:00,41.3,36.2,30.35,NW,315,2.0,6.0,82,0.00,,SKC,0.01,VWS V14.00,2013-01-09 18:00:00,
2013-01-09 13:30:00,40.9,37.0,30.29,NW,315,0.0,5.0,86,0.00,,SKC,0.01,VWS V14.00,2013-01-09 18:30:00,
2013-01-09 14:00:00,41.5,37.9,30.27,ESE,112,0.0,4.0,87,0.00,,SKC,0.01,VWS V14.00,2013-01-09 19:00:00,
2013-01-09 14:30:00,42.3,38.4,30.25,ESE,112,1.0,5.0,86,0.00,,SKC,0.01,VWS V14.00,2013-01-09 19:30:00,
2013-01-09 15:00:00,42.6,38.7,30.25,ESE,112,0.0,1.0,86,0.00,,SKC,0.01,VWS V14.00,2013-01-09 20:00:00,
2013-01-09 15:30:00,43.1,39.2,30.24,ESE,112,0.0,4.0,86,0.00,,SKC,0.01,VWS V14.00,2013-01-09 20:30:00,
2013-01-09 16:00:00,44.0,39.2,30.25,WSW,248,1.0,4.0,83,0.00,,SKC,0.01,VWS V14.00,2013-01-09 21:00:00,
2013-01-09 16:30:00,42.6,38.1,30.25,WSW,248,1.0,6.0,84,0.00,,SKC,0.01,VWS V14.00,2013-01-09 21:30:00,
2013-01-09 17:00:00,41.5,37.0,30.27,WNW,292,1.0,5.0,84,0.00,,SKC,0.01,VWS V14.00,2013-01-09 22:00:00,
2013-01-09 17:30:00,40.5,36.3,30.27,WNW,292,1.0,5.0,85,0.00,,SKC,0.01,VWS V14.00,2013-01-09 22:30:00,
2013-01-09 18:00:00,39.5,35.4,30.27,WNW,292,0.0,1.0,85,0.00,,SKC,0.01,VWS V14.00,2013-01-09 23:00:00,
2013-01-09 18:30:00,37.4,35.3,30.30,WNW,292,0.0,2.0,92,0.00,,SKC,0.01,VWS V14.00,2013-01-09 23:30:00,
2013-01-09 19:00:00,35.5,32.6,30.30,WNW,292,0.0,1.0,89,0.00,,SKC,0.01,VWS V14.00,2013-01-10 00:00:00,
2013-01-09 19:30:00,34.2,31.6,30.31,WNW,292,0.0,1.0,90,0.00,,SKC,0.01,VWS V14.00,2013-01-10 00:30:00,
2013-01-09 20:00:00,32.6,30.0,30.31,WNW,292,0.0,1.0,90,0.00,,SKC,0.01,VWS V14.00,2013-01-10 01:00:00,
2013-01-09 20:30:00,31.9,29.6,30.31,WNW,292,0.0,0.0,91,0.00,,SKC,0.01,VWS V14.00,2013-01-10 01:30:00,
2013-01-09 21:00:00,30.6,28.6,30.32,WNW,292,0.0,0.0,92,0.00,,SKC,0.01,VWS V14.00,2013-01-10 02:00:00,
2013-01-09 21:30:00,30.1,28.1,30.33,WNW,292,0.0,0.0,92,0.00,,SKC,0.01,VWS V14.00,2013-01-10 02:30:00,
2013-01-09 22:00:00,29.9,28.1,30.33,WNW,292,0.0,1.0,93,0.00,,SKC,0.01,VWS V14.00,2013-01-10 03:00:00,
2013-01-09 22:30:00,29.5,27.7,30.33,WNW,292,0.0,0.0,93,0.00,,SKC,0.01,VWS V14.00,2013-01-10 03:30:00,
2013-01-09 23:00:00,29.4,27.6,30.35,WNW,292,0.0,1.0,93,0.00,,SKC,0.01,VWS V14.00,2013-01-10 04:00:00,
2013-01-09 23:30:00,29.1,27.3,30.36,WNW,292,0.0,0.0,93,0.00,,SKC,0.01,VWS V14.00,2013-01-10 04:30:00,